[[{"header":{"parameterUnit":"m.s-1","parameterCategory":1,"la1":30.2991,"la2":30.254,"lo1":-89.0895,"lo2":-89.0444,"dy":0.0017,"dx":0.0017,"nx":28,"ny":28,"refTime":"2024-08-14T03:00:00:Z","depth":0,"parameterNumber":2,"parameterNumberName":"U-component_of_WINDS"},"data":[0,0,0,0,0,0,0,0,0,0,0,0,0,0,0,0,0,0,0,0,0,0,0,0,0,0,0,0,0,0,0,0,0,0,0,0,0,0,0,0,0,0,0,0,0,0,0,0,0,0,0,0,0,0,0,0,0,0,0.8526,0.8528,0,0.8641,0.8642,0.8643,0.864,0.8639,0.8637,0.8636,0.8753,0.8757,0.8762,0,0,0,0,0,0,0,0,0,0,0,0,0,0.8302,0.8306,0.8526,0.8528,0.8529,0.864,0.8642,0.8644,0.8641,0.8639,0.8637,0.8635,0.8751,0.8757,0.8762,0,0,0,0,0,0,0,0,0,0,0,0,0,0.8406,0.8308,0.8526,0.8541,0.8543,0.864,0.8642,0.8644,0.8641,0.8639,0.8636,0.8634,0.8749,0.8756,0.8763,0.8852,0,0,0.8784,0.8787,0,0,0,0,0,0,0,0,0.84,0.8414,0.8537,0.854,0.8543,0.8624,0.8606,0.8714,0.8642,0.8604,0.8636,0.8633,0.8712,0.8721,0.8748,0.8857,0.8862,0.8784,0.8789,0.8791,0.8793,0,0,0,0,0,0,0,0.8393,0.8409,0.8571,0.8539,0.8543,0.8541,0.8553,0.8626,0.867,0.8607,0.8607,0.8621,0.8713,0.8741,0.8751,0.8864,0.8784,0.879,0.8794,0.8797,0.9048,0.9051,0,0,0,0,0,0,0.8383,0.8404,0.8568,0.8575,0.8464,0.8547,0.8561,0.86,0.8669,0.8677,0.8623,0.862,0.8731,0.8743,0.8755,0.8861,0.8791,0.8798,0.8802,0.9046,0.9049,0.9052,0,0,0,0,0,0,0.8378,0.8398,0.8563,0.8489,0.851,0.8553,0.8598,0.8604,0.8632,0.8681,0.8688,0.8644,0.873,0.8745,0.8827,0.8865,0.8801,0.8807,0.9043,0.9047,0.905,0.9076,0,0,0,0,0,0,0.8372,0.8396,0.8431,0.849,0.8514,0.8634,0.86,0.8608,0.8644,0.8642,0.8703,0.8711,0.8729,0.8817,0.8834,0.8874,0.8812,0.9039,0.9044,0.9049,0.9072,0.9081,0.9088,0,0,0,0,0,0.8364,0.8435,0.8433,0.8453,0.8559,0.8637,0.865,0.867,0.8648,0.8683,0.8713,0.8709,0.8858,0.8825,0.8844,0.8887,0.9037,0.9043,0.9049,0.9069,0.9079,0.9088,0,0,0,0,0,0,0.8381,0.8443,0.8442,0.8534,0.858,0.8636,0.8681,0.8681,0.8734,0.873,0.8752,0.8766,0.8847,0.8875,0.8837,0.8975,0.8945,0.8955,0.8954,0.8964,0.8971,0.8963,0.8818,0,0,0,0,0,0.8395,0.8453,0.8504,0.8581,0.8604,0.8638,0.8673,0.8684,0.8732,0.8752,0.8788,0.8835,0.8892,0.8929,0.8985,0.9076,0.9088,0.9114,0.9122,0.9128,0.9136,0.9183,0.9195,0.907,0.907,0.907,0,0,0.8425,0.8467,0.8502,0.8585,0.8622,0.868,0.8655,0.8719,0.8762,0.8761,0.884,0.8868,0.8921,0.9007,0.9047,0.9033,0.9173,0.9136,0.914,0.9145,0.9191,0.9202,0.9213,0.9074,0.9074,0.9073,0,0,0.851,0.8548,0.8615,0.8651,0.8707,0.8729,0.8745,0.88,0.8818,0.8898,0.8897,0.8948,0.9048,0.9085,0.9116,0.9211,0.9208,0.9228,0.9269,0.9315,0.9324,0.9333,0.9365,0.9376,0.9236,0.9237,0.9237,0,0.8541,0.863,0.8649,0.8712,0.8747,0.8749,0.8815,0.8849,0.892,0.8944,0.8927,0.9049,0.9085,0.9178,0.9201,0.9227,0.9244,0.9222,0.9322,0.9331,0.9339,0.9369,0.9381,0.9238,0.9238,0.9238,0.9238,0,0.8664,0.8725,0.8772,0.8839,0.8879,0.8944,0.8971,0.901,0.9016,0.9039,0.9118,0.9161,0.9224,0.9246,0.9254,0.934,0.9329,0.9317,0.9287,0.9352,0.9381,0.9393,0.9241,0.9241,0.924,0.9239,0,0,0.8764,0.8839,0.8856,0.8885,0.8944,0.8992,0.9055,0.9115,0.9147,0.9195,0.9247,0.9329,0.9317,0.9353,0.9364,0.9404,0.9473,0.9387,0.9388,0.94,0.9567,0.9575,0.9588,0.9471,0.9474,0.9476,0.9562,0,0.8854,0.8967,0.8984,0.9083,0.9138,0.9138,0.9192,0.9234,0.9256,0.9306,0.933,0.9387,0.9368,0.9389,0.9429,0.9456,0.9507,0.945,0.9519,0.9521,0.9505,0.9604,0.9613,0.9693,0.9573,0.9575,0.9577,0,0.8975,0.9024,0.9128,0.9177,0.9201,0.925,0.9305,0.9353,0.9399,0.9412,0.945,0.9456,0.9519,0.9486,0.9573,0.9534,0.9562,0.958,0.9583,0.959,0.9552,0.9612,0.9719,0.973,0.9595,0.9594,0.9592,0,0.9035,0.9128,0.9201,0.9226,0.9286,0.932,0.9346,0.939,0.9424,0.9472,0.9494,0.9549,0.9579,0.962,0.964,0.9614,0.9724,0.9693,0.9735,0.9735,0.9758,0.9757,0.987,0.9778,0.9778,0.9778,0.9778,0,0.9133,0.9196,0.9229,0.9274,0.9343,0.9362,0.9429,0.9455,0.9493,0.9541,0.9545,0.959,0.9614,0.9662,0.9677,0.9745,0.9759,0.977,0.9773,0.9769,0.9768,0.9788,0.9783,0.9781,0.978,0.978,0.9779,0,0.9212,0.9237,0.9317,0.9366,0.9379,0.9428,0.947,0.9512,0.9533,0.9594,0.961,0.9643,0.9699,0.9722,0.9792,0.9802,0.9879,0.9879,0.9864,0.9865,0.9905,0.99,1.0035,1.0052,0.995,0.9951,0.9952,0,0.9273,0.9321,0.9374,0.9407,0.9434,0.9487,0.9521,0.954,0.9576,0.963,0.9665,0.9722,0.9768,0.9858,0.9887,0.994,0.994,0.9983,0.9948,0.9941,0.9938,0.9935,0.9939,0.999,0.9991,0.9992,0.9992,0,0.9377,0.9386,0.9435,0.9488,0.9529,0.9572,0.9614,0.964,0.9665,0.9704,0.9762,0.9797,0.9867,0.9922,0.9976,1.0002,1.0001,1.0003,1.0015,1.0011,1.0,1.0005,0.988,1.0,0.9999,0.9999,0.9998,0.9998,0.9447,0.9489,0.9532,0.9586,0.9619,0.9657,0.9699,0.9724,0.9773,0.9831,0.9839,0.99,0.9941,1.0013,1.0041,1.0088,1.0076,1.0095,1.0099,1.0103,1.0104,0.9993,1.0098,1.0097,1.0097,1.0097,1.0097,0,0.9549,0.9576,0.9626,0.9684,0.9726,0.9721,0.9766,0.9801,0.9854,0.9894,0.9938,1.0003,1.0055,1.0088,1.014,1.0171,1.0172,1.0184,1.0182,1.0187,1.0113,1.0096,1.0183,1.0183,1.0183,1.0183,1.0183,1.0183,0.9607,0.9676,0.969,0.9775,0.9801,0.9861,0.9887,0.9921,0.9952,1.0024,1.0068,1.0088,1.0124,1.0179,1.0226,1.0234,1.0252,1.0265,1.0272,1.0202,1.0193,1.0184,1.0169,1.027,1.027,1.0343,1.0344,1.0344]},{"header":{"parameterUnit":"m.s-1","parameterCategory":1,"la1":30.2991,"la2":30.254,"lo1":-89.0895,"lo2":-89.0444,"dy":0.0017,"dx":0.0017,"nx":28,"ny":28,"refTime":"2024-08-14T03:00:00:Z","depth":0,"parameterNumber":3,"parameterNumberName":"V-component_of_WINDS"},"data":[0,0,0,0,0,0,0,0,0,0,0,0,0,0,0,0,0,0,0,0,0,0,0,0,0,0,0,0,0,0,0,0,0,0,0,0,0,0,0,0,0,0,0,0,0,0,0,0,0,0,0,0,0,0,0,0,0,0,2.0814,2.0814,0,2.0799,2.0799,2.0799,2.0802,2.0802,2.0803,2.0803,2.0784,2.0783,2.0782,0,0,0,0,0,0,0,0,0,0,0,0,0,2.0842,2.0841,2.0814,2.0814,2.0813,2.0799,2.0799,2.0799,2.0802,2.0802,2.0803,2.0803,2.0784,2.0783,2.0782,0,0,0,0,0,0,0,0,0,0,0,0,0,2.0828,2.0841,2.0814,2.0814,2.0813,2.0799,2.0799,2.0798,2.0802,2.0802,2.0803,2.0803,2.0784,2.0783,2.0782,2.0766,0,0,2.0778,2.0778,0,0,0,0,0,0,0,0,2.0829,2.0827,2.0814,2.0814,2.0813,2.0803,2.0802,2.0787,2.0802,2.0806,2.0803,2.0803,2.0789,2.0788,2.0784,2.0765,2.0764,2.0778,2.0778,2.0777,2.0777,0,0,0,0,0,0,0,2.083,2.0828,2.0808,2.0814,2.0813,2.0813,2.0812,2.0799,2.0795,2.0806,2.0806,2.0804,2.0789,2.0785,2.0784,2.0764,2.0778,2.0777,2.0777,2.0776,2.073,2.073,0,0,0,0,0,0,2.0832,2.0829,2.0808,2.0807,2.0823,2.0812,2.0811,2.0806,2.0796,2.0794,2.0804,2.0805,2.0787,2.0785,2.0783,2.0763,2.0777,2.0776,2.0775,2.0731,2.073,2.073,0,0,0,0,0,0,2.0832,2.083,2.0809,2.0818,2.0815,2.0811,2.0806,2.0805,2.0801,2.0794,2.0793,2.0801,2.0787,2.0785,2.077,2.0763,2.0775,2.0774,2.0731,2.0731,2.073,2.0724,0,0,0,0,0,0,2.0833,2.083,2.0825,2.0818,2.0815,2.0798,2.0805,2.0805,2.0799,2.08,2.0791,2.079,2.0787,2.0772,2.0769,2.0761,2.0773,2.0732,2.0731,2.073,2.0725,2.0723,2.0722,0,0,0,0,0,2.0834,2.0823,2.0824,2.0822,2.0808,2.0797,2.0795,2.0794,2.0799,2.0793,2.0789,2.079,2.0764,2.0771,2.0767,2.0759,2.0733,2.0731,2.073,2.0726,2.0723,2.0722,0,0,0,0,0,0,2.0827,2.0822,2.0824,2.081,2.0804,2.0798,2.079,2.0792,2.0784,2.0784,2.0782,2.078,2.0765,2.0761,2.0768,2.0743,2.0749,2.0747,2.0746,2.0744,2.0743,2.0744,2.0772,0,0,0,0,0,2.0824,2.0817,2.0812,2.0801,2.0798,2.0795,2.079,2.0789,2.0783,2.078,2.0774,2.0767,2.0757,2.075,2.0741,2.0724,2.0722,2.0717,2.0715,2.0714,2.0712,2.0703,2.07,2.0726,2.0726,2.0726,0,0,2.0818,2.0814,2.0809,2.0799,2.0795,2.0786,2.0792,2.0783,2.0776,2.0778,2.0764,2.076,2.0751,2.0736,2.0729,2.0732,2.0705,2.0713,2.0712,2.0711,2.0701,2.0699,2.0697,2.0725,2.0725,2.0725,0,0,2.0802,2.0799,2.0789,2.0784,2.0778,2.0776,2.0773,2.0767,2.0765,2.0751,2.0753,2.0744,2.0727,2.0721,2.0715,2.0697,2.0698,2.0694,2.0685,2.0676,2.0674,2.0672,2.0666,2.0663,2.0692,2.0692,2.0692,0,2.0794,2.0783,2.0783,2.0774,2.0769,2.0772,2.0761,2.0756,2.0746,2.0742,2.0746,2.0725,2.0719,2.0702,2.0698,2.0694,2.069,2.0695,2.0675,2.0673,2.0671,2.0665,2.0662,2.0692,2.0692,2.0692,2.0692,0,2.0774,2.0765,2.0758,2.075,2.0744,2.0734,2.0732,2.0726,2.0726,2.0723,2.0709,2.0703,2.0692,2.0688,2.0687,2.0671,2.0673,2.0675,2.0682,2.0668,2.0662,2.066,2.0691,2.0691,2.0691,2.0691,0,0,2.0753,2.0746,2.0743,2.0739,2.0732,2.0725,2.0715,2.0706,2.0701,2.0693,2.0684,2.067,2.0673,2.0667,2.0665,2.0657,2.0643,2.0661,2.0661,2.0658,2.0624,2.0622,2.0619,2.0644,2.0643,2.0643,2.0625,0,2.0736,2.072,2.072,2.0704,2.0696,2.0698,2.0689,2.0683,2.068,2.0672,2.0668,2.0658,2.0663,2.0659,2.0651,2.0647,2.0636,2.0648,2.0634,2.0634,2.0636,2.0616,2.0614,2.0597,2.0622,2.0622,2.0621,0,2.0715,2.0709,2.0692,2.0687,2.0683,2.0675,2.0667,2.0659,2.0652,2.0651,2.0644,2.0644,2.0632,2.0639,2.0622,2.063,2.0624,2.0621,2.062,2.0619,2.0627,2.0614,2.0591,2.0589,2.0618,2.0618,2.0618,0,2.0701,2.0688,2.0677,2.0674,2.0667,2.0661,2.0658,2.0652,2.0646,2.0638,2.0634,2.0625,2.0619,2.0611,2.0608,2.0613,2.0591,2.0598,2.0589,2.0589,2.0584,2.0584,2.0561,2.0581,2.0581,2.0581,2.0581,0,2.0682,2.0672,2.0671,2.0664,2.0653,2.0652,2.064,2.0637,2.0631,2.0623,2.0624,2.0616,2.0612,2.0603,2.06,2.0587,2.0584,2.0582,2.0581,2.0582,2.0582,2.0578,2.0579,2.058,2.058,2.058,2.058,0,2.0665,2.0664,2.0652,2.0647,2.0645,2.0637,2.0632,2.0625,2.0622,2.0611,2.0609,2.0604,2.0594,2.059,2.0576,2.0574,2.0559,2.0559,2.0561,2.0561,2.0553,2.0553,2.0525,2.0521,2.0544,2.0544,2.0543,0,2.0654,2.0646,2.064,2.0636,2.0632,2.0624,2.0619,2.0618,2.0612,2.0604,2.0597,2.0587,2.0579,2.0561,2.0556,2.0546,2.0546,2.0536,2.0544,2.0545,2.0545,2.0546,2.0545,2.0535,2.0535,2.0534,2.0534,0,2.0633,2.0633,2.0626,2.0619,2.0613,2.0607,2.0601,2.0596,2.0594,2.0587,2.0577,2.0571,2.0558,2.0548,2.0537,2.0532,2.0532,2.0532,2.0529,2.053,2.0532,2.0531,2.0558,2.0533,2.0533,2.0533,2.0533,2.0533,2.0618,2.0612,2.0607,2.0599,2.0595,2.0589,2.0582,2.0579,2.0571,2.0562,2.0561,2.055,2.0542,2.0529,2.0523,2.0514,2.0516,2.0512,2.0511,2.051,2.051,2.0533,2.0511,2.0512,2.0512,2.0512,2.0512,0,2.0597,2.0595,2.0587,2.058,2.0573,2.0576,2.0569,2.0563,2.0554,2.0548,2.054,2.0528,2.0518,2.0512,2.0502,2.0495,2.0495,2.0492,2.0493,2.0492,2.0508,2.0511,2.0493,2.0493,2.0493,2.0493,2.0493,2.0493,2.0586,2.0575,2.0574,2.0561,2.0558,2.0548,2.0544,2.0539,2.0534,2.0521,2.0513,2.051,2.0503,2.0493,2.0483,2.0481,2.0477,2.0474,2.0473,2.0488,2.049,2.0492,2.0495,2.0474,2.0474,2.0457,2.0457,2.0457]}]]